Weather History for Jerez de la Frontera, Spain

Change the Weather History Date:

Sunday, May 12, 2013

  Actual Average Record
Temperature  
Mean Temperature 70 °F -  
Max Temperature 84 °F 79 °F 95 °F (1999)
Min Temperature 57 °F 55 °F 46 °F (2001)
Cooling Degree Days 6    
Growing Degree Days 20 (Base 50)    
Moisture  
Dew Point 59 °F    
Average Humidity 65    
Maximum Humidity 94    
Minimum Humidity 32    
Precipitation  
Precipitation 0.00 in 0.04 in - ()
Sea Level Pressure  
Sea Level Pressure 30.04 in    
Wind  
Wind Speed 4 mph ()    
Max Wind Speed 10 mph    
Max Gust Speed 22 mph    
Visibility 7.3 miles    
Events      
Averages and records for this station are not official NWS values.
T = Trace of Precipitation, MM = Missing Value Source: Averaged Metar Reports

Daily Weather History Graph

Daily Weather History Graph

Search for Another Location

Airport:

Trip Planner

Search our weather history database for the weather conditions in past years. The results will help you decide how hot, cold, wet, or windy it might be!

Date:

Astronomy

May. 12, 2013 Rise Set
Actual Time 7:19 AM CEST 9:22 PM CEST
Civil Twilight 6:50 AM CEST 9:51 PM CEST
Nautical Twilight 6:15 AM CEST 10:26 PM CEST
Astronomical Twilight 5:38 AM CEST 11:03 PM CEST
Moon 9:03 AM CEST (5/12) 11:38 PM CEST (5/12)
Length of Visible Light 15h 00m
Length of Day
14h 03m
Waxing Crescent, 5% of the Moon is Illuminated
May 12
Waxing Crescent
May 18
First Quarter
May 25
Full
May 31
Last Quarter
Jun 8
New

Hourly Weather History & Observations

Time (CEST) Temp. Heat Index Dew Point Humidity Pressure Visibility Wind Dir Wind Speed Gust Speed Precip Events Conditions
2:00 AM 63 °F - 53 °F 62% 30.06 in - Calm Calm - -  
5:00 AM 59.0 °F - 51.8 °F 77% 30.04 in - Variable 2.3 mph - N/A   Clear
5:30 AM 59.0 °F - 55.4 °F 88% 30.04 in - SW 4.6 mph - N/A   Clear
6:00 AM 59.0 °F - 55.4 °F 88% 30.04 in - Variable 2.3 mph - N/A   Clear
6:30 AM 59.0 °F - 57.2 °F 94% 30.04 in - Variable 2.3 mph - N/A   Clear
7:00 AM 59.0 °F - 55.4 °F 88% 30.04 in - Variable 2.3 mph - N/A   Clear
7:30 AM 57.2 °F - 53.6 °F 88% 30.04 in - Calm Calm - N/A   Clear
8:00 AM 59 °F - 56 °F 85% 30.06 in 7 mi Calm Calm - -  
8:00 AM 57.2 °F - 55.4 °F 94% 30.06 in - Calm Calm - N/A   Clear
8:30 AM 62.6 °F - 59.0 °F 88% 30.06 in - Calm Calm - N/A   Clear
9:00 AM 64.4 °F - 60.8 °F 88% 30.06 in - Variable 1.2 mph - N/A   Clear
9:30 AM 66.2 °F - 60.8 °F 83% 30.06 in - Variable 2.3 mph - N/A   Clear
10:00 AM 68.0 °F - 60.8 °F 78% 30.06 in - SSE 4.6 mph - N/A   Clear
10:30 AM 71.6 °F - 60.8 °F 69% 30.06 in - SSE 4.6 mph - N/A   Clear
11:00 AM 73.4 °F - 60.8 °F 65% 30.06 in - Variable 3.5 mph - N/A   Clear
11:30 AM 75.2 °F - 60.8 °F 61% 30.06 in - Variable 4.6 mph - N/A   Clear
12:00 PM 77.0 °F - 60.8 °F 57% 30.06 in - Variable 2.3 mph - N/A   Clear
12:30 PM 78.8 °F - 57.2 °F 47% 30.06 in - South 6.9 mph - N/A   Clear
1:00 PM 78.8 °F - 60.8 °F 54% 30.06 in - South 10.4 mph - N/A   Clear
1:30 PM 78.8 °F - 59.0 °F 51% 30.06 in - South 9.2 mph - N/A   Clear
2:00 PM 83 °F - 58 °F 32% 30.06 in 12 mi South 6.9 mph - -  
2:00 PM 80.6 °F 81.1 °F 59.0 °F 48% 30.04 in - SSW 5.8 mph - N/A   Clear
2:30 PM 80.6 °F 81.1 °F 59.0 °F 48% 30.04 in - SSW 6.9 mph - N/A   Clear
3:00 PM 80.6 °F 81.5 °F 60.8 °F 51% 30.04 in - South 10.4 mph - N/A   Clear
3:30 PM 80.6 °F 81.5 °F 60.8 °F 51% 30.04 in - South 10.4 mph 21.9 mph N/A   Clear
4:00 PM 80.6 °F 81.1 °F 59.0 °F 48% 30.04 in - SSE 6.9 mph - N/A   Clear
4:30 PM 80.6 °F 81.1 °F 59.0 °F 48% 30.04 in - SSW 10.4 mph - N/A   Clear
5:00 PM 80.6 °F 81.5 °F 60.8 °F 51% 30.01 in 6.2 mi South 8.1 mph - N/A   Partly Cloudy
5:30 PM 80.6 °F 81.1 °F 59.0 °F 48% 30.01 in 6.2 mi South 8.1 mph - N/A   Partly Cloudy
6:00 PM 80.6 °F 81.1 °F 59.0 °F 48% 30.01 in 6.2 mi SSW 8.1 mph - N/A   Partly Cloudy
6:30 PM 80.6 °F 81.5 °F 60.8 °F 51% 30.01 in 6.2 mi SSW 9.2 mph - N/A   Partly Cloudy
7:00 PM 78.8 °F - 60.8 °F 54% 30.01 in 6.2 mi South 9.2 mph - N/A   Partly Cloudy
7:30 PM 77.0 °F - 59.0 °F 54% 30.01 in 6.2 mi SSE 10.4 mph - N/A   Partly Cloudy
8:00 PM 76 °F - 59 °F 46% 30.03 in 12 mi South 10.4 mph - -   Clear
8:00 PM 75.2 °F - 60.8 °F 61% 30.04 in 6.2 mi South 9.2 mph - N/A   Partly Cloudy
8:30 PM 73.4 °F - 60.8 °F 65% 30.04 in 6.2 mi South 9.2 mph - N/A   Partly Cloudy
9:00 PM 71.6 °F - 59.0 °F 64% 30.04 in - South 6.9 mph - N/A   Clear
9:30 PM 69.8 °F - 59.0 °F 68% 30.04 in - South 5.8 mph - N/A   Clear
10:00 PM 68.0 °F - 59.0 °F 73% 30.04 in - South 4.6 mph - N/A   Clear
10:30 PM 68.0 °F - 59.0 °F 73% 30.04 in - SSE 4.6 mph - N/A   Clear
11:00 PM 66.2 °F - 59.0 °F 78% 30.06 in - Variable 2.3 mph - N/A   Clear